Time,TemperatureF,DewpointF,PressureIn,WindDirection,WindDirectionDegrees,WindSpeedMPH,WindSpeedGustMPH,Humidity,HourlyPrecipIn,Conditions,Clouds,dailyrainin,SoftwareType,DateUTC
2013-02-21 00:00:00,25.0,11.5,30.00,West,280,1.0,4.0,56,0.00,,,0.00,WeatherCatV1.13B119,2013-02-21 05:00:00,
2013-02-21 00:05:00,25.0,11.5,30.00,West,278,2.0,4.0,56,0.00,,,0.00,WeatherCatV1.13B119,2013-02-21 05:05:00,
2013-02-21 00:10:00,25.0,11.5,30.00,North,8,1.0,3.0,56,0.00,,,0.00,WeatherCatV1.13B119,2013-02-21 05:10:00,
2013-02-21 00:15:00,24.9,11.5,30.00,NNW,327,1.0,1.0,56,0.00,,,0.00,WeatherCatV1.13B119,2013-02-21 05:15:00,
2013-02-21 00:20:00,24.9,11.5,30.00,NW,319,1.0,6.0,56,0.00,,,0.00,WeatherCatV1.13B119,2013-02-21 05:20:00,
2013-02-21 00:25:00,24.8,11.8,30.01,WSW,256,1.0,2.0,57,0.00,,,0.00,WeatherCatV1.13B119,2013-02-21 05:25:00,
2013-02-21 00:30:00,24.8,11.8,30.01,NW,318,1.0,3.0,57,0.00,,,0.00,WeatherCatV1.13B119,2013-02-21 05:30:00,
2013-02-21 00:35:00,24.7,11.7,30.01,WNW,284,1.0,3.0,57,0.00,,,0.00,WeatherCatV1.13B119,2013-02-21 05:35:00,
2013-02-21 00:40:00,24.7,11.7,30.01,West,279,3.0,4.0,57,0.00,,,0.00,WeatherCatV1.13B119,2013-02-21 05:40:00,
2013-02-21 00:45:00,24.7,11.7,30.01,SW,229,1.0,2.0,57,0.00,,,0.00,WeatherCatV1.13B119,2013-02-21 05:45:00,
2013-02-21 00:50:00,24.7,11.7,30.01,West,277,1.0,3.0,57,0.00,,,0.00,WeatherCatV1.13B119,2013-02-21 05:50:00,
2013-02-21 00:55:00,24.7,11.7,30.01,West,277,3.0,6.0,57,0.00,,,0.00,WeatherCatV1.13B119,2013-02-21 05:55:00,
2013-02-21 01:00:00,24.7,11.7,30.01,WSW,254,1.0,3.0,57,0.00,,,0.00,WeatherCatV1.13B119,2013-02-21 06:00:00,
2013-02-21 01:05:00,24.6,12.0,30.00,NNW,338,2.0,3.0,58,0.00,,,0.00,WeatherCatV1.13B119,2013-02-21 06:05:00,
2013-02-21 01:10:00,24.5,11.5,30.00,North,349,0.0,6.0,57,0.00,,,0.00,WeatherCatV1.13B119,2013-02-21 06:10:00,
2013-02-21 01:11:00,24.5,11.5,30.00,North,349,1.0,2.0,57,0.00,,,0.00,WeatherCatV1.13B119,2013-02-21 06:11:00,
2013-02-21 01:16:00,24.5,11.9,30.00,SSE,154,1.0,3.0,58,0.00,,,0.00,WeatherCatV1.13B119,2013-02-21 06:16:00,
2013-02-21 01:21:00,24.4,11.8,30.01,NW,315,2.0,5.0,58,0.00,,,0.00,WeatherCatV1.13B119,2013-02-21 06:21:00,
2013-02-21 01:26:00,24.4,11.8,30.01,NW,313,0.0,3.0,58,0.00,,,0.00,WeatherCatV1.13B119,2013-02-21 06:26:00,
2013-02-21 01:31:00,24.3,11.7,30.01,North,357,1.0,4.0,58,0.00,,,0.00,WeatherCatV1.13B119,2013-02-21 06:31:00,
2013-02-21 01:36:00,24.3,11.7,30.00,WSW,238,0.0,5.0,58,0.00,,,0.00,WeatherCatV1.13B119,2013-02-21 06:36:00,
2013-02-21 01:41:00,24.3,11.7,30.00,West,273,1.0,2.0,58,0.00,,,0.00,WeatherCatV1.13B119,2013-02-21 06:41:00,
2013-02-21 01:46:00,24.3,11.7,30.00,SSW,198,3.0,4.0,58,0.00,,,0.00,WeatherCatV1.13B119,2013-02-21 06:46:00,
2013-02-21 01:51:00,24.3,11.7,30.00,WSW,257,1.0,2.0,58,0.00,,,0.00,WeatherCatV1.13B119,2013-02-21 06:51:00,
2013-02-21 01:56:00,24.3,12.1,30.00,NW,306,1.0,6.0,59,0.00,,,0.00,WeatherCatV1.13B119,2013-02-21 06:56:00,
2013-02-21 02:01:00,24.2,11.6,30.00,NNW,333,2.0,4.0,58,0.00,,,0.00,WeatherCatV1.13B119,2013-02-21 07:01:00,
2013-02-21 02:06:00,24.2,11.6,30.00,West,271,2.0,4.0,58,0.00,,,0.00,WeatherCatV1.13B119,2013-02-21 07:06:00,
2013-02-21 02:11:00,24.2,11.6,30.00,WNW,284,2.0,2.0,58,0.00,,,0.00,WeatherCatV1.13B119,2013-02-21 07:11:00,
2013-02-21 02:16:00,24.2,12.0,30.00,SSW,202,1.0,2.0,59,0.00,,,0.00,WeatherCatV1.13B119,2013-02-21 07:16:00,
2013-02-21 02:21:00,24.1,11.9,30.00,SW,236,2.0,4.0,59,0.00,,,0.00,WeatherCatV1.13B119,2013-02-21 07:21:00,
2013-02-21 02:26:00,24.1,11.9,30.00,West,275,0.0,4.0,59,0.00,,,0.00,WeatherCatV1.13B119,2013-02-21 07:26:00,
2013-02-21 02:31:00,24.0,11.8,30.00,West,275,2.0,5.0,59,0.00,,,0.00,WeatherCatV1.13B119,2013-02-21 07:31:00,
2013-02-21 02:36:00,24.0,11.8,30.00,NW,321,1.0,3.0,59,0.00,,,0.00,WeatherCatV1.13B119,2013-02-21 07:36:00,
2013-02-21 02:41:00,24.0,11.8,30.00,WNW,294,2.0,3.0,59,0.00,,,0.00,WeatherCatV1.13B119,2013-02-21 07:41:00,
2013-02-21 02:46:00,24.0,11.8,30.00,WSW,256,4.0,4.0,59,0.00,,,0.00,WeatherCatV1.13B119,2013-02-21 07:46:00,
2013-02-21 02:51:00,24.0,11.8,30.00,North,5,1.0,2.0,59,0.00,,,0.00,WeatherCatV1.13B119,2013-02-21 07:51:00,
2013-02-21 02:56:00,24.0,12.2,30.00,West,278,1.0,2.0,60,0.00,,,0.00,WeatherCatV1.13B119,2013-02-21 07:56:00,
2013-02-21 03:01:00,23.9,12.1,30.00,West,268,1.0,3.0,60,0.00,,,0.00,WeatherCatV1.13B119,2013-02-21 08:01:00,
2013-02-21 03:06:00,23.9,12.1,30.00,South,186,3.0,3.0,60,0.00,,,0.00,WeatherCatV1.13B119,2013-02-21 08:06:00,
2013-02-21 03:11:00,24.0,12.2,30.00,South,186,0.0,2.0,60,0.00,,,0.00,WeatherCatV1.13B119,2013-02-21 08:11:00,
2013-02-21 03:16:00,24.0,12.2,30.00,West,265,2.0,3.0,60,0.00,,,0.00,WeatherCatV1.13B119,2013-02-21 08:16:00,
2013-02-21 03:21:00,24.1,12.3,30.00,WSW,247,1.0,3.0,60,0.00,,,0.00,WeatherCatV1.13B119,2013-02-21 08:21:00,
2013-02-21 03:26:00,24.1,12.3,30.00,SW,217,1.0,3.0,60,0.00,,,0.00,WeatherCatV1.13B119,2013-02-21 08:26:00,
2013-02-21 03:31:00,24.2,12.3,30.00,WSW,248,0.0,3.0,60,0.00,,,0.00,WeatherCatV1.13B119,2013-02-21 08:31:00,
2013-02-21 03:36:00,24.3,12.4,30.00,WSW,238,2.0,4.0,60,0.00,,,0.00,WeatherCatV1.13B119,2013-02-21 08:36:00,
2013-02-21 03:41:00,24.3,12.4,30.00,WNW,301,0.0,3.0,60,0.00,,,0.00,WeatherCatV1.13B119,2013-02-21 08:41:00,
2013-02-21 03:46:00,24.3,12.4,30.00,NW,315,1.0,2.0,60,0.00,,,0.00,WeatherCatV1.13B119,2013-02-21 08:46:00,
2013-02-21 03:51:00,24.4,12.5,29.99,West,275,0.0,2.0,60,0.00,,,0.00,WeatherCatV1.13B119,2013-02-21 08:51:00,
2013-02-21 03:56:00,24.3,12.4,30.00,NW,317,0.0,2.0,60,0.00,,,0.00,WeatherCatV1.13B119,2013-02-21 08:56:00,
2013-02-21 04:01:00,24.4,12.9,30.00,West,279,2.0,3.0,61,0.00,,,0.00,WeatherCatV1.13B119,2013-02-21 09:01:00,
2013-02-21 04:06:00,24.4,12.5,30.00,WSW,242,2.0,3.0,60,0.00,,,0.00,WeatherCatV1.13B119,2013-02-21 09:06:00,
2013-02-21 04:11:00,24.4,12.5,30.00,WSW,242,1.0,4.0,60,0.00,,,0.00,WeatherCatV1.13B119,2013-02-21 09:11:00,
2013-02-21 04:16:00,24.5,13.0,30.00,WSW,242,2.0,3.0,61,0.00,,,0.00,WeatherCatV1.13B119,2013-02-21 09:16:00,
2013-02-21 04:21:00,24.5,12.6,30.00,West,272,2.0,2.0,60,0.00,,,0.00,WeatherCatV1.13B119,2013-02-21 09:21:00,
2013-02-21 04:26:00,24.6,13.1,30.00,North,352,1.0,4.0,61,0.00,,,0.00,WeatherCatV1.13B119,2013-02-21 09:26:00,
2013-02-21 04:31:00,24.6,13.1,30.00,SW,225,4.0,4.0,61,0.00,,,0.00,WeatherCatV1.13B119,2013-02-21 09:31:00,
2013-02-21 04:36:00,24.7,13.2,30.00,SW,231,2.0,2.0,61,0.00,,,0.00,WeatherCatV1.13B119,2013-02-21 09:36:00,
2013-02-21 04:41:00,24.7,13.2,30.01,NW,317,1.0,2.0,61,0.00,,,0.00,WeatherCatV1.13B119,2013-02-21 09:41:00,
2013-02-21 04:46:00,24.8,13.3,30.01,WSW,242,2.0,5.0,61,0.00,,,0.00,WeatherCatV1.13B119,2013-02-21 09:46:00,
2013-02-21 04:51:00,24.8,12.9,30.01,SW,233,1.0,3.0,60,0.00,,,0.00,WeatherCatV1.13B119,2013-02-21 09:51:00,
2013-02-21 04:56:00,24.9,13.0,30.01,NW,321,3.0,5.0,60,0.00,,,0.00,WeatherCatV1.13B119,2013-02-21 09:56:00,
2013-02-21 05:01:00,24.9,12.6,30.01,NW,313,3.0,6.0,59,0.00,,,0.00,WeatherCatV1.13B119,2013-02-21 10:01:00,
2013-02-21 05:06:00,25.0,12.7,30.01,NW,321,5.0,5.0,59,0.00,,,0.00,WeatherCatV1.13B119,2013-02-21 10:06:00,
2013-02-21 05:11:00,25.0,12.7,30.02,West,265,3.0,4.0,59,0.00,,,0.00,WeatherCatV1.13B119,2013-02-21 10:11:00,
2013-02-21 05:16:00,25.0,12.7,30.02,North,352,1.0,2.0,59,0.00,,,0.00,WeatherCatV1.13B119,2013-02-21 10:16:00,
2013-02-21 05:21:00,25.0,12.7,30.02,ESE,106,0.0,6.0,59,0.00,,,0.00,WeatherCatV1.13B119,2013-02-21 10:21:00,
2013-02-21 05:26:00,25.0,12.7,30.02,West,272,3.0,8.0,59,0.00,,,0.00,WeatherCatV1.13B119,2013-02-21 10:26:00,
2013-02-21 05:32:00,25.0,12.7,30.02,NNW,329,4.0,8.0,59,0.00,,,0.00,WeatherCatV1.13B119,2013-02-21 10:32:00,
2013-02-21 05:37:00,24.9,12.2,30.02,SW,228,6.0,7.0,58,0.00,,,0.00,WeatherCatV1.13B119,2013-02-21 10:37:00,
2013-02-21 05:42:00,24.9,12.2,30.02,NNW,339,4.0,5.0,58,0.00,,,0.00,WeatherCatV1.13B119,2013-02-21 10:42:00,
2013-02-21 05:47:00,24.9,12.2,30.02,West,269,1.0,7.0,58,0.00,,,0.00,WeatherCatV1.13B119,2013-02-21 10:47:00,
2013-02-21 05:52:00,24.8,12.1,30.03,West,267,4.0,8.0,58,0.00,,,0.00,WeatherCatV1.13B119,2013-02-21 10:52:00,
2013-02-21 05:57:00,24.8,12.1,30.03,North,7,2.0,6.0,58,0.00,,,0.00,WeatherCatV1.13B119,2013-02-21 10:57:00,
2013-02-21 06:02:00,24.8,12.1,30.03,NNE,20,2.0,9.0,58,0.00,,,0.00,WeatherCatV1.13B119,2013-02-21 11:02:00,
2013-02-21 06:07:00,24.7,12.4,30.03,WSW,252,3.0,5.0,59,0.00,,,0.00,WeatherCatV1.13B119,2013-02-21 11:07:00,
2013-02-21 06:12:00,24.7,12.4,30.03,WNW,294,2.0,3.0,59,0.00,,,0.00,WeatherCatV1.13B119,2013-02-21 11:12:00,
2013-02-21 06:17:00,24.7,12.8,30.03,WNW,289,0.0,2.0,60,0.00,,,0.00,WeatherCatV1.13B119,2013-02-21 11:17:00,
2013-02-21 06:22:00,24.6,12.7,30.03,NNW,342,1.0,4.0,60,0.00,,,0.00,WeatherCatV1.13B119,2013-02-21 11:22:00,
2013-02-21 06:27:00,24.5,12.2,30.03,North,5,2.0,5.0,59,0.00,,,0.00,WeatherCatV1.13B119,2013-02-21 11:27:00,
2013-02-21 06:32:00,24.4,12.2,30.03,West,271,1.0,4.0,59,0.00,,,0.00,WeatherCatV1.13B119,2013-02-21 11:32:00,
2013-02-21 06:37:00,24.4,12.2,30.02,North,356,8.0,12.0,59,0.00,,,0.00,WeatherCatV1.13B119,2013-02-21 11:37:00,
2013-02-21 06:42:00,24.4,12.2,30.02,SW,233,4.0,5.0,59,0.00,,,0.00,WeatherCatV1.13B119,2013-02-21 11:42:00,
2013-02-21 06:47:00,24.4,11.8,30.02,NW,325,2.0,4.0,58,0.00,,,0.00,WeatherCatV1.13B119,2013-02-21 11:47:00,
2013-02-21 06:52:00,24.4,12.2,30.03,WSW,250,3.0,5.0,59,0.00,,,0.00,WeatherCatV1.13B119,2013-02-21 11:52:00,
2013-02-21 06:57:00,24.4,12.2,30.03,WNW,298,2.0,5.0,59,0.00,,,0.00,WeatherCatV1.13B119,2013-02-21 11:57:00,
2013-02-21 07:02:00,24.4,12.2,30.03,East,95,1.0,5.0,59,0.00,,,0.00,WeatherCatV1.13B119,2013-02-21 12:02:00,
2013-02-21 07:07:00,24.4,12.2,30.03,West,261,2.0,4.0,59,0.00,,,0.00,WeatherCatV1.13B119,2013-02-21 12:07:00,
2013-02-21 07:12:00,24.4,12.2,30.03,WNW,284,2.0,3.0,59,0.00,,,0.00,WeatherCatV1.13B119,2013-02-21 12:12:00,
2013-02-21 07:17:00,24.5,12.2,30.03,North,9,0.0,4.0,59,0.00,,,0.00,WeatherCatV1.13B119,2013-02-21 12:17:00,
2013-02-21 07:22:00,24.7,12.4,30.03,North,352,1.0,3.0,59,0.00,,,0.00,WeatherCatV1.13B119,2013-02-21 12:22:00,
2013-02-21 07:27:00,24.7,12.1,30.03,West,265,3.0,3.0,58,0.00,,,0.00,WeatherCatV1.13B119,2013-02-21 12:27:00,
2013-02-21 07:32:00,24.8,12.1,30.03,West,266,0.0,5.0,58,0.00,,,0.00,WeatherCatV1.13B119,2013-02-21 12:32:00,
2013-02-21 07:37:00,24.9,12.2,30.03,WSW,258,2.0,2.0,58,0.00,,,0.00,WeatherCatV1.13B119,2013-02-21 12:37:00,
2013-02-21 07:42:00,25.1,12.0,30.03,NNW,343,1.0,3.0,57,0.00,,,0.00,WeatherCatV1.13B119,2013-02-21 12:42:00,
2013-02-21 07:47:00,25.2,12.1,30.03,SW,234,2.0,4.0,57,0.00,,,0.00,WeatherCatV1.13B119,2013-02-21 12:47:00,
2013-02-21 07:51:00,25.4,12.3,30.03,West,262,2.0,5.0,57,0.00,,,0.00,WeatherCatV1.13B119,2013-02-21 12:51:00,
2013-02-21 07:56:00,25.6,12.5,30.03,NNW,342,3.0,3.0,57,0.00,,,0.00,WeatherCatV1.13B119,2013-02-21 12:56:00,
2013-02-21 08:01:00,25.7,12.2,30.03,WSW,238,2.0,6.0,56,0.00,,,0.00,WeatherCatV1.13B119,2013-02-21 13:01:00,
2013-02-21 08:06:00,25.9,12.4,30.03,North,9,5.0,5.0,56,0.00,,,0.00,WeatherCatV1.13B119,2013-02-21 13:06:00,
2013-02-21 08:11:00,26.0,12.1,30.03,SSW,209,2.0,6.0,55,0.00,,,0.00,WeatherCatV1.13B119,2013-02-21 13:11:00,
2013-02-21 08:16:00,26.2,12.3,30.03,West,260,2.0,8.0,55,0.00,,,0.00,WeatherCatV1.13B119,2013-02-21 13:16:00,
2013-02-21 08:21:00,26.3,12.4,30.03,NW,318,2.0,3.0,55,0.00,,,0.00,WeatherCatV1.13B119,2013-02-21 13:21:00,
2013-02-21 08:26:00,26.7,12.7,30.03,SW,223,5.0,7.0,55,0.00,,,0.00,WeatherCatV1.13B119,2013-02-21 13:26:00,
2013-02-21 08:31:00,26.8,12.4,30.03,WNW,284,2.0,6.0,54,0.00,,,0.00,WeatherCatV1.13B119,2013-02-21 13:31:00,
2013-02-21 08:36:00,26.8,12.4,30.03,WSW,256,1.0,2.0,54,0.00,,,0.00,WeatherCatV1.13B119,2013-02-21 13:36:00,
2013-02-21 08:41:00,27.0,12.2,30.03,North,7,5.0,6.0,53,0.00,,,0.00,WeatherCatV1.13B119,2013-02-21 13:41:00,
2013-02-21 08:46:00,27.0,12.2,30.03,West,265,2.0,6.0,53,0.00,,,0.00,WeatherCatV1.13B119,2013-02-21 13:46:00,
2013-02-21 08:51:00,27.2,12.4,30.03,SW,233,4.0,9.0,53,0.00,,,0.00,WeatherCatV1.13B119,2013-02-21 13:51:00,
2013-02-21 08:56:00,27.4,12.5,30.03,NNW,332,2.0,7.0,53,0.00,,,0.00,WeatherCatV1.13B119,2013-02-21 13:56:00,
2013-02-21 09:01:00,27.5,12.6,30.03,North,357,5.0,6.0,53,0.00,,,0.00,WeatherCatV1.13B119,2013-02-21 14:01:00,
2013-02-21 09:06:00,27.7,12.8,30.02,WNW,284,6.0,9.0,53,0.00,,,0.00,WeatherCatV1.13B119,2013-02-21 14:06:00,
2013-02-21 09:11:00,27.7,12.4,30.03,West,270,3.0,7.0,52,0.00,,,0.00,WeatherCatV1.13B119,2013-02-21 14:11:00,
2013-02-21 09:16:00,27.7,12.8,30.03,NNE,23,1.0,2.0,53,0.00,,,0.00,WeatherCatV1.13B119,2013-02-21 14:16:00,
2013-02-21 09:21:00,27.9,12.6,30.03,SW,229,6.0,8.0,52,0.00,,,0.00,WeatherCatV1.13B119,2013-02-21 14:21:00,
2013-02-21 09:26:00,28.0,12.7,30.03,West,267,3.0,4.0,52,0.00,,,0.00,WeatherCatV1.13B119,2013-02-21 14:26:00,
2013-02-21 09:31:00,28.3,12.5,30.03,WNW,284,1.0,4.0,51,0.00,,,0.00,WeatherCatV1.13B119,2013-02-21 14:31:00,
2013-02-21 09:36:00,28.5,12.7,30.02,NNW,346,1.0,2.0,51,0.00,,,0.00,WeatherCatV1.13B119,2013-02-21 14:36:00,
2013-02-21 09:41:00,28.9,13.1,30.02,NNE,27,1.0,5.0,51,0.00,,,0.00,WeatherCatV1.13B119,2013-02-21 14:41:00,
2013-02-21 09:46:00,29.2,12.9,30.02,NNW,348,0.0,5.0,50,0.00,,,0.00,WeatherCatV1.13B119,2013-02-21 14:46:00,
2013-02-21 09:51:00,29.4,12.6,30.02,West,280,1.0,5.0,49,0.00,,,0.00,WeatherCatV1.13B119,2013-02-21 14:51:00,
2013-02-21 09:56:00,29.3,12.5,30.01,West,270,7.0,7.0,49,0.00,,,0.00,WeatherCatV1.13B119,2013-02-21 14:56:00,
2013-02-21 10:01:00,29.3,12.5,30.02,NNW,333,2.0,5.0,49,0.00,,,0.00,WeatherCatV1.13B119,2013-02-21 15:01:00,
2013-02-21 10:06:00,29.5,12.7,30.02,WNW,284,3.0,10.0,49,0.00,,,0.00,WeatherCatV1.13B119,2013-02-21 15:06:00,
2013-02-21 10:11:00,29.8,13.0,30.02,WNW,284,2.0,10.0,49,0.00,,,0.00,WeatherCatV1.13B119,2013-02-21 15:11:00,
2013-02-21 10:16:00,30.0,13.2,30.03,NW,324,3.0,7.0,49,0.00,,,0.00,WeatherCatV1.13B119,2013-02-21 15:16:00,
2013-02-21 10:21:00,30.1,12.8,30.02,WSW,258,2.0,9.0,48,0.00,,,0.00,WeatherCatV1.13B119,2013-02-21 15:21:00,
2013-02-21 10:26:00,30.3,13.0,30.02,SW,229,5.0,5.0,48,0.00,,,0.00,WeatherCatV1.13B119,2013-02-21 15:26:00,
2013-02-21 10:31:00,30.7,13.4,30.01,SW,221,3.0,5.0,48,0.00,,,0.00,WeatherCatV1.13B119,2013-02-21 15:31:00,
2013-02-21 10:36:00,30.9,13.5,30.02,West,270,3.0,7.0,48,0.00,,,0.00,WeatherCatV1.13B119,2013-02-21 15:36:00,
2013-02-21 10:41:00,30.8,13.5,30.02,WNW,284,5.0,7.0,48,0.00,,,0.00,WeatherCatV1.13B119,2013-02-21 15:41:00,
2013-02-21 10:46:00,30.8,13.5,30.03,NW,323,2.0,8.0,48,0.00,,,0.00,WeatherCatV1.13B119,2013-02-21 15:46:00,
2013-02-21 10:51:00,31.0,13.6,30.03,West,271,1.0,4.0,48,0.00,,,0.00,WeatherCatV1.13B119,2013-02-21 15:51:00,
2013-02-21 10:56:00,31.4,14.0,30.03,WSW,245,4.0,7.0,48,0.00,,,0.00,WeatherCatV1.13B119,2013-02-21 15:56:00,
2013-02-21 11:01:00,31.6,14.2,30.03,North,358,2.0,3.0,48,0.00,,,0.00,WeatherCatV1.13B119,2013-02-21 16:01:00,
2013-02-21 11:06:00,31.9,14.0,30.04,West,270,1.0,10.0,47,0.00,,,0.00,WeatherCatV1.13B119,2013-02-21 16:06:00,
2013-02-21 11:11:00,31.6,13.7,30.04,NNE,21,2.0,11.0,47,0.00,,,0.00,WeatherCatV1.13B119,2013-02-21 16:11:00,
2013-02-21 11:16:00,31.5,14.1,30.05,NNW,345,3.0,8.0,48,0.00,,,0.00,WeatherCatV1.13B119,2013-02-21 16:16:00,
2013-02-21 11:21:00,31.4,14.0,30.05,WSW,244,6.0,8.0,48,0.00,,,0.00,WeatherCatV1.13B119,2013-02-21 16:21:00,
2013-02-21 11:26:00,31.2,14.3,30.05,West,259,3.0,6.0,49,0.00,,,0.00,WeatherCatV1.13B119,2013-02-21 16:26:00,
2013-02-21 11:31:00,31.6,14.7,30.05,NNW,348,4.0,8.0,49,0.00,,,0.00,WeatherCatV1.13B119,2013-02-21 16:31:00,
2013-02-21 11:36:00,31.6,14.2,30.05,North,350,0.0,5.0,48,0.00,,,0.00,WeatherCatV1.13B119,2013-02-21 16:36:00,
2013-02-21 11:41:00,31.8,14.4,30.04,NNW,338,5.0,7.0,48,0.00,,,0.00,WeatherCatV1.13B119,2013-02-21 16:41:00,
2013-02-21 11:46:00,31.9,14.5,30.04,NW,313,2.0,4.0,48,0.00,,,0.00,WeatherCatV1.13B119,2013-02-21 16:46:00,
2013-02-21 11:51:00,31.9,14.5,30.04,NNE,27,9.0,9.0,48,0.00,,,0.00,WeatherCatV1.13B119,2013-02-21 16:51:00,
2013-02-21 11:56:00,31.6,13.7,30.03,NNW,341,1.0,8.0,47,0.00,,,0.00,WeatherCatV1.13B119,2013-02-21 16:56:00,
2013-02-21 12:01:00,31.9,14.5,30.03,WNW,289,4.0,7.0,48,0.00,,,0.00,WeatherCatV1.13B119,2013-02-21 17:01:00,
2013-02-21 12:06:00,32.3,14.4,30.03,SW,222,5.0,7.0,47,0.00,,,0.00,WeatherCatV1.13B119,2013-02-21 17:06:00,
2013-02-21 12:11:00,32.6,15.1,30.03,NNW,332,10.0,10.0,48,0.00,,,0.00,WeatherCatV1.13B119,2013-02-21 17:11:00,
2013-02-21 12:16:00,32.5,14.0,30.03,West,265,3.0,10.0,46,0.00,,,0.00,WeatherCatV1.13B119,2013-02-21 17:16:00,
2013-02-21 12:21:00,32.5,14.0,30.03,North,2,4.0,9.0,46,0.00,,,0.00,WeatherCatV1.13B119,2013-02-21 17:21:00,
2013-02-21 12:26:00,32.6,14.6,30.02,NNW,334,5.0,10.0,47,0.00,,,0.00,WeatherCatV1.13B119,2013-02-21 17:26:00,
2013-02-21 12:31:00,32.6,14.6,30.02,NNW,331,4.0,5.0,47,0.00,,,0.00,WeatherCatV1.13B119,2013-02-21 17:31:00,
2013-02-21 12:36:00,32.8,14.8,30.02,NNW,327,2.0,4.0,47,0.00,,,0.00,WeatherCatV1.13B119,2013-02-21 17:36:00,
2013-02-21 12:41:00,33.2,14.7,30.02,NNW,343,0.0,11.0,46,0.00,,,0.00,WeatherCatV1.13B119,2013-02-21 17:41:00,
2013-02-21 12:46:00,33.4,14.9,30.02,NW,321,3.0,8.0,46,0.00,,,0.00,WeatherCatV1.13B119,2013-02-21 17:46:00,
2013-02-21 12:51:00,33.3,14.3,30.02,NNW,338,1.0,5.0,45,0.00,,,0.00,WeatherCatV1.13B119,2013-02-21 17:51:00,
2013-02-21 12:56:00,33.1,14.1,30.02,WNW,298,3.0,9.0,45,0.00,,,0.00,WeatherCatV1.13B119,2013-02-21 17:56:00,
2013-02-21 13:01:00,33.2,14.7,30.02,NNW,345,0.0,10.0,46,0.00,,,0.00,WeatherCatV1.13B119,2013-02-21 18:01:00,
2013-02-21 13:06:00,33.4,14.9,30.01,NW,317,3.0,4.0,46,0.00,,,0.00,WeatherCatV1.13B119,2013-02-21 18:06:00,
2013-02-21 13:11:00,33.4,14.4,30.01,NW,312,2.0,7.0,45,0.00,,,0.00,WeatherCatV1.13B119,2013-02-21 18:11:00,
2013-02-21 13:16:00,33.4,15.4,30.02,North,353,1.0,8.0,47,0.00,,,0.00,WeatherCatV1.13B119,2013-02-21 18:16:00,
2013-02-21 13:21:00,33.5,15.0,30.02,NE,52,3.0,8.0,46,0.00,,,0.00,WeatherCatV1.13B119,2013-02-21 18:21:00,
2013-02-21 13:26:00,33.3,14.8,30.02,NW,318,1.0,9.0,46,0.00,,,0.00,WeatherCatV1.13B119,2013-02-21 18:26:00,
2013-02-21 13:31:00,32.8,14.3,30.02,NNW,343,1.0,7.0,46,0.00,,,0.00,WeatherCatV1.13B119,2013-02-21 18:31:00,
2013-02-21 13:36:00,33.1,15.1,30.03,West,262,2.0,5.0,47,0.00,,,0.00,WeatherCatV1.13B119,2013-02-21 18:36:00,
2013-02-21 13:41:00,33.5,15.0,30.03,NNW,333,3.0,12.0,46,0.00,,,0.00,WeatherCatV1.13B119,2013-02-21 18:41:00,
2013-02-21 13:46:00,33.1,14.1,30.02,West,272,4.0,8.0,45,0.00,,,0.00,WeatherCatV1.13B119,2013-02-21 18:46:00,
2013-02-21 13:51:00,32.8,14.3,30.03,NNW,333,2.0,6.0,46,0.00,,,0.00,WeatherCatV1.13B119,2013-02-21 18:51:00,
2013-02-21 13:56:00,32.8,14.8,30.03,North,4,0.0,8.0,47,0.00,,,0.00,WeatherCatV1.13B119,2013-02-21 18:56:00,
2013-02-21 14:01:00,32.9,14.4,30.03,SW,229,1.0,9.0,46,0.00,,,0.00,WeatherCatV1.13B119,2013-02-21 19:01:00,
2013-02-21 14:06:00,33.2,15.2,30.03,NNE,13,8.0,9.0,47,0.00,,,0.00,WeatherCatV1.13B119,2013-02-21 19:06:00,
2013-02-21 14:11:00,33.3,15.3,30.03,NNE,23,1.0,5.0,47,0.00,,,0.00,WeatherCatV1.13B119,2013-02-21 19:11:00,
2013-02-21 14:16:00,33.7,15.1,30.03,NNW,344,2.0,7.0,46,0.00,,,0.00,WeatherCatV1.13B119,2013-02-21 19:16:00,
2013-02-21 14:21:00,33.7,14.6,30.03,NW,315,1.0,5.0,45,0.00,,,0.00,WeatherCatV1.13B119,2013-02-21 19:21:00,
2013-02-21 14:26:00,33.5,15.5,30.03,North,350,1.0,7.0,47,0.00,,,0.00,WeatherCatV1.13B119,2013-02-21 19:26:00,
2013-02-21 14:31:00,33.7,14.6,30.03,WNW,284,2.0,7.0,45,0.00,,,0.00,WeatherCatV1.13B119,2013-02-21 19:31:00,
2013-02-21 14:36:00,33.6,14.6,30.04,WSW,243,3.0,7.0,45,0.00,,,0.00,WeatherCatV1.13B119,2013-02-21 19:36:00,
2013-02-21 14:41:00,33.7,15.1,30.03,NNW,345,5.0,10.0,46,0.00,,,0.00,WeatherCatV1.13B119,2013-02-21 19:41:00,
2013-02-21 14:46:00,33.8,15.2,30.03,North,5,1.0,3.0,46,0.00,,,0.00,WeatherCatV1.13B119,2013-02-21 19:46:00,
2013-02-21 14:51:00,34.1,15.5,30.03,North,351,2.0,4.0,46,0.00,,,0.00,WeatherCatV1.13B119,2013-02-21 19:51:00,
2013-02-21 14:56:00,34.1,15.0,30.04,NNW,340,3.0,5.0,45,0.00,,,0.00,WeatherCatV1.13B119,2013-02-21 19:56:00,
2013-02-21 15:01:00,34.0,15.4,30.04,South,178,2.0,6.0,46,0.00,,,0.00,WeatherCatV1.13B119,2013-02-21 20:01:00,
2013-02-21 15:06:00,34.0,15.4,30.04,NW,310,1.0,2.0,46,0.00,,,0.00,WeatherCatV1.13B119,2013-02-21 20:06:00,
2013-02-21 15:11:00,34.2,15.6,30.04,NNW,338,3.0,5.0,46,0.00,,,0.00,WeatherCatV1.13B119,2013-02-21 20:11:00,
2013-02-21 15:16:00,34.2,15.1,30.05,North,351,4.0,6.0,45,0.00,,,0.00,WeatherCatV1.13B119,2013-02-21 20:16:00,
2013-02-21 15:21:00,33.9,14.8,30.05,NNW,335,4.0,6.0,45,0.00,,,0.00,WeatherCatV1.13B119,2013-02-21 20:21:00,
2013-02-21 15:26:00,33.5,15.0,30.06,WNW,289,4.0,8.0,46,0.00,,,0.00,WeatherCatV1.13B119,2013-02-21 20:26:00,
2013-02-21 15:31:00,33.3,14.8,30.06,West,264,2.0,5.0,46,0.00,,,0.00,WeatherCatV1.13B119,2013-02-21 20:31:00,
2013-02-21 15:36:00,33.2,15.2,30.06,NNW,344,2.0,6.0,47,0.00,,,0.00,WeatherCatV1.13B119,2013-02-21 20:36:00,
2013-02-21 15:41:00,33.3,15.8,30.06,West,273,3.0,4.0,48,0.00,,,0.00,WeatherCatV1.13B119,2013-02-21 20:41:00,
2013-02-21 15:46:00,33.5,15.5,30.06,West,269,4.0,6.0,47,0.00,,,0.00,WeatherCatV1.13B119,2013-02-21 20:46:00,
2013-02-21 15:51:00,33.2,14.7,30.06,West,279,3.0,3.0,46,0.00,,,0.00,WeatherCatV1.13B119,2013-02-21 20:51:00,
2013-02-21 15:56:00,32.9,14.9,30.06,WNW,300,3.0,7.0,47,0.00,,,0.00,WeatherCatV1.13B119,2013-02-21 20:56:00,
2013-02-21 16:01:00,32.8,14.8,30.07,West,280,3.0,6.0,47,0.00,,,0.00,WeatherCatV1.13B119,2013-02-21 21:01:00,
2013-02-21 16:06:00,32.5,14.5,30.07,NNW,339,4.0,10.0,47,0.00,,,0.00,WeatherCatV1.13B119,2013-02-21 21:06:00,
2013-02-21 16:11:00,32.3,14.8,30.07,North,7,2.0,6.0,48,0.00,,,0.00,WeatherCatV1.13B119,2013-02-21 21:11:00,
2013-02-21 16:16:00,32.4,14.9,30.08,West,273,1.0,5.0,48,0.00,,,0.00,WeatherCatV1.13B119,2013-02-21 21:16:00,
2013-02-21 16:21:00,32.5,14.5,30.09,North,2,2.0,4.0,47,0.00,,,0.00,WeatherCatV1.13B119,2013-02-21 21:21:00,
2013-02-21 16:26:00,32.4,14.9,30.09,West,278,3.0,9.0,48,0.00,,,0.00,WeatherCatV1.13B119,2013-02-21 21:26:00,
2013-02-21 16:31:00,32.3,14.8,30.09,NNW,340,6.0,8.0,48,0.00,,,0.00,WeatherCatV1.13B119,2013-02-21 21:31:00,
2013-02-21 16:36:00,32.2,14.7,30.10,NNW,344,2.0,9.0,48,0.00,,,0.00,WeatherCatV1.13B119,2013-02-21 21:36:00,
2013-02-21 16:41:00,32.1,14.6,30.10,NW,312,3.0,8.0,48,0.00,,,0.00,WeatherCatV1.13B119,2013-02-21 21:41:00,
2013-02-21 16:46:00,32.1,14.6,30.11,NNE,29,3.0,6.0,48,0.00,,,0.00,WeatherCatV1.13B119,2013-02-21 21:46:00,
2013-02-21 16:51:00,31.8,14.8,30.11,NNW,338,3.0,8.0,49,0.00,,,0.00,WeatherCatV1.13B119,2013-02-21 21:51:00,
2013-02-21 16:56:00,31.5,14.6,30.11,NNW,331,3.0,5.0,49,0.00,,,0.00,WeatherCatV1.13B119,2013-02-21 21:56:00,
2013-02-21 17:01:00,31.2,14.8,30.11,North,352,0.0,3.0,50,0.00,,,0.00,WeatherCatV1.13B119,2013-02-21 22:01:00,
2013-02-21 17:06:00,31.1,14.7,30.11,NNW,348,3.0,8.0,50,0.00,,,0.00,WeatherCatV1.13B119,2013-02-21 22:06:00,
2013-02-21 17:11:00,30.9,14.5,30.11,NW,312,3.0,4.0,50,0.00,,,0.00,WeatherCatV1.13B119,2013-02-21 22:11:00,
2013-02-21 17:17:00,30.7,14.7,30.11,WSW,251,6.0,7.0,51,0.00,,,0.00,WeatherCatV1.13B119,2013-02-21 22:17:00,
2013-02-21 17:22:00,30.5,14.6,30.11,WNW,284,3.0,11.0,51,0.00,,,0.00,WeatherCatV1.13B119,2013-02-21 22:22:00,
2013-02-21 17:27:00,30.3,14.4,30.12,North,9,1.0,10.0,51,0.00,,,0.00,WeatherCatV1.13B119,2013-02-21 22:27:00,
2013-02-21 17:32:00,30.1,14.6,30.13,North,352,2.0,4.0,52,0.00,,,0.00,WeatherCatV1.13B119,2013-02-21 22:32:00,
2013-02-21 17:37:00,30.0,14.5,30.13,NNW,331,1.0,12.0,52,0.00,,,0.00,WeatherCatV1.13B119,2013-02-21 22:37:00,
2013-02-21 17:42:00,29.8,14.3,30.14,NNE,19,5.0,10.0,52,0.00,,,0.00,WeatherCatV1.13B119,2013-02-21 22:42:00,
2013-02-21 17:47:00,29.7,14.3,30.13,North,8,8.0,9.0,52,0.00,,,0.00,WeatherCatV1.13B119,2013-02-21 22:47:00,
2013-02-21 17:52:00,29.5,14.5,30.14,North,9,3.0,3.0,53,0.00,,,0.00,WeatherCatV1.13B119,2013-02-21 22:52:00,
2013-02-21 17:57:00,29.4,14.8,30.14,NE,34,2.0,5.0,54,0.00,,,0.00,WeatherCatV1.13B119,2013-02-21 22:57:00,
2013-02-21 18:02:00,29.2,14.6,30.14,NNW,327,2.0,5.0,54,0.00,,,0.00,WeatherCatV1.13B119,2013-02-21 23:02:00,
2013-02-21 18:07:00,29.0,14.9,30.15,NE,46,1.0,6.0,55,0.00,,,0.00,WeatherCatV1.13B119,2013-02-21 23:07:00,
2013-02-21 18:12:00,28.9,14.4,30.15,NW,323,2.0,5.0,54,0.00,,,0.00,WeatherCatV1.13B119,2013-02-21 23:12:00,
2013-02-21 18:17:00,28.7,14.6,30.15,NNW,343,1.0,3.0,55,0.00,,,0.00,WeatherCatV1.13B119,2013-02-21 23:17:00,
2013-02-21 18:22:00,28.6,14.9,30.15,NNW,347,4.0,5.0,56,0.00,,,0.00,WeatherCatV1.13B119,2013-02-21 23:22:00,
2013-02-21 18:27:00,28.5,14.4,30.15,NNW,340,2.0,4.0,55,0.00,,,0.00,WeatherCatV1.13B119,2013-02-21 23:27:00,
2013-02-21 18:32:00,28.4,14.7,30.15,NW,315,2.0,7.0,56,0.00,,,0.00,WeatherCatV1.13B119,2013-02-21 23:32:00,
2013-02-21 18:37:00,28.3,14.6,30.15,NNW,348,1.0,4.0,56,0.00,,,0.00,WeatherCatV1.13B119,2013-02-21 23:37:00,
2013-02-21 18:42:00,28.1,14.4,30.15,NW,323,1.0,7.0,56,0.00,,,0.00,WeatherCatV1.13B119,2013-02-21 23:42:00,
2013-02-21 18:47:00,28.0,14.4,30.16,NW,308,3.0,7.0,56,0.00,,,0.00,WeatherCatV1.13B119,2013-02-21 23:47:00,
2013-02-21 18:52:00,28.0,14.4,30.17,NNE,21,3.0,5.0,56,0.00,,,0.00,WeatherCatV1.13B119,2013-02-21 23:52:00,
2013-02-21 18:57:00,27.9,14.7,30.16,North,349,2.0,7.0,57,0.00,,,0.00,WeatherCatV1.13B119,2013-02-21 23:57:00,
2013-02-21 19:02:00,27.8,14.6,30.17,WNW,284,1.0,4.0,57,0.00,,,0.00,WeatherCatV1.13B119,2013-02-22 00:02:00,
2013-02-21 19:07:00,27.7,14.5,30.17,North,359,1.0,3.0,57,0.00,,,0.00,WeatherCatV1.13B119,2013-02-22 00:07:00,
2013-02-21 19:12:00,27.5,14.3,30.18,NNW,347,1.0,3.0,57,0.00,,,0.00,WeatherCatV1.13B119,2013-02-22 00:12:00,
2013-02-21 19:17:00,27.4,14.2,30.19,NW,313,1.0,4.0,57,0.00,,,0.00,WeatherCatV1.13B119,2013-02-22 00:17:00,
2013-02-21 19:22:00,27.4,14.6,30.19,NNE,20,2.0,4.0,58,0.00,,,0.00,WeatherCatV1.13B119,2013-02-22 00:22:00,
2013-02-21 19:27:00,27.3,14.5,30.20,North,354,4.0,5.0,58,0.00,,,0.00,WeatherCatV1.13B119,2013-02-22 00:27:00,
2013-02-21 19:32:00,27.2,14.4,30.21,North,3,3.0,6.0,58,0.00,,,0.00,WeatherCatV1.13B119,2013-02-22 00:32:00,
2013-02-21 19:37:00,27.1,14.3,30.21,North,352,1.0,7.0,58,0.00,,,0.00,WeatherCatV1.13B119,2013-02-22 00:37:00,
2013-02-21 19:42:00,27.0,14.2,30.22,North,11,1.0,5.0,58,0.00,,,0.00,WeatherCatV1.13B119,2013-02-22 00:42:00,
2013-02-21 19:47:00,26.9,14.5,30.23,WSW,250,2.0,2.0,59,0.00,,,0.00,WeatherCatV1.13B119,2013-02-22 00:47:00,
2013-02-21 19:52:00,26.7,14.3,30.24,West,273,3.0,5.0,59,0.00,,,0.00,WeatherCatV1.13B119,2013-02-22 00:52:00,
2013-02-21 19:57:00,26.6,14.2,30.25,NNW,327,1.0,4.0,59,0.00,,,0.00,WeatherCatV1.13B119,2013-02-22 00:57:00,
2013-02-21 20:02:00,26.6,14.6,30.25,NW,314,2.0,2.0,60,0.00,,,0.00,WeatherCatV1.13B119,2013-02-22 01:02:00,
2013-02-21 20:07:00,26.5,14.1,30.26,WNW,303,4.0,9.0,59,0.00,,,0.00,WeatherCatV1.13B119,2013-02-22 01:07:00,
2013-02-21 20:12:00,26.4,14.0,30.26,NNW,334,3.0,8.0,59,0.00,,,0.00,WeatherCatV1.13B119,2013-02-22 01:12:00,
2013-02-21 20:17:00,26.3,14.3,30.26,NNW,346,1.0,3.0,60,0.00,,,0.00,WeatherCatV1.13B119,2013-02-22 01:17:00,
2013-02-21 20:22:00,26.3,14.3,30.27,WSW,254,1.0,5.0,60,0.00,,,0.00,WeatherCatV1.13B119,2013-02-22 01:22:00,
2013-02-21 20:27:00,26.2,14.2,30.26,West,265,3.0,5.0,60,0.00,,,0.00,WeatherCatV1.13B119,2013-02-22 01:27:00,
2013-02-21 20:32:00,26.1,14.1,30.26,West,260,1.0,5.0,60,0.00,,,0.00,WeatherCatV1.13B119,2013-02-22 01:32:00,
2013-02-21 20:37:00,26.0,14.4,30.27,WNW,299,2.0,5.0,61,0.00,,,0.00,WeatherCatV1.13B119,2013-02-22 01:37:00,
2013-02-21 20:42:00,25.8,14.2,30.27,NNE,17,1.0,2.0,61,0.00,,,0.00,WeatherCatV1.13B119,2013-02-22 01:42:00,
2013-02-21 20:47:00,25.8,14.2,30.27,North,354,0.0,4.0,61,0.00,,,0.00,WeatherCatV1.13B119,2013-02-22 01:47:00,
2013-02-21 20:52:00,25.6,14.0,30.28,North,0,3.0,7.0,61,0.00,,,0.00,WeatherCatV1.13B119,2013-02-22 01:52:00,
2013-02-21 20:57:00,25.5,13.9,30.29,NNW,335,1.0,4.0,61,0.00,,,0.00,WeatherCatV1.13B119,2013-02-22 01:57:00,
2013-02-21 21:02:00,25.4,14.2,30.29,North,356,3.0,4.0,62,0.00,,,0.00,WeatherCatV1.13B119,2013-02-22 02:02:00,
2013-02-21 21:07:00,25.2,14.0,30.29,NW,320,1.0,3.0,62,0.00,,,0.00,WeatherCatV1.13B119,2013-02-22 02:07:00,
2013-02-21 21:12:00,25.1,13.9,30.29,West,265,2.0,4.0,62,0.00,,,0.00,WeatherCatV1.13B119,2013-02-22 02:12:00,
2013-02-21 21:17:00,25.0,14.2,30.28,NW,325,0.0,2.0,63,0.00,,,0.00,WeatherCatV1.13B119,2013-02-22 02:17:00,
2013-02-21 21:22:00,24.9,14.1,30.29,NW,313,2.0,7.0,63,0.00,,,0.00,WeatherCatV1.13B119,2013-02-22 02:22:00,
2013-02-21 21:27:00,24.9,14.1,30.29,NNW,337,2.0,9.0,63,0.00,,,0.00,WeatherCatV1.13B119,2013-02-22 02:27:00,
2013-02-21 21:32:00,24.8,14.0,30.28,NNW,341,5.0,8.0,63,0.00,,,0.00,WeatherCatV1.13B119,2013-02-22 02:32:00,
2013-02-21 21:37:00,24.7,13.9,30.29,North,356,3.0,4.0,63,0.00,,,0.00,WeatherCatV1.13B119,2013-02-22 02:37:00,
2013-02-21 21:42:00,24.7,13.9,30.29,NNW,340,3.0,4.0,63,0.00,,,0.00,WeatherCatV1.13B119,2013-02-22 02:42:00,
2013-02-21 21:47:00,24.6,14.2,30.29,NNW,342,8.0,8.0,64,0.00,,,0.00,WeatherCatV1.13B119,2013-02-22 02:47:00,
2013-02-21 21:52:00,24.6,14.2,30.29,NNW,332,4.0,7.0,64,0.00,,,0.00,WeatherCatV1.13B119,2013-02-22 02:52:00,
2013-02-21 21:57:00,24.5,14.1,30.29,NNW,333,2.0,8.0,64,0.00,,,0.00,WeatherCatV1.13B119,2013-02-22 02:57:00,
2013-02-21 22:02:00,24.5,14.1,30.28,NW,314,4.0,7.0,64,0.00,,,0.00,WeatherCatV1.13B119,2013-02-22 03:02:00,
2013-02-21 22:07:00,24.4,14.4,30.29,NW,314,3.0,5.0,65,0.00,,,0.00,WeatherCatV1.13B119,2013-02-22 03:07:00,
2013-02-21 22:12:00,24.4,14.0,30.29,NW,321,4.0,8.0,64,0.00,,,0.00,WeatherCatV1.13B119,2013-02-22 03:12:00,
2013-02-21 22:17:00,24.3,14.3,30.29,North,350,3.0,5.0,65,0.00,,,0.00,WeatherCatV1.13B119,2013-02-22 03:17:00,
2013-02-21 22:22:00,24.3,14.3,30.29,NNW,337,4.0,9.0,65,0.00,,,0.00,WeatherCatV1.13B119,2013-02-22 03:22:00,
2013-02-21 22:27:00,24.2,14.2,30.28,North,358,3.0,6.0,65,0.00,,,0.00,WeatherCatV1.13B119,2013-02-22 03:27:00,
2013-02-21 22:32:00,24.2,14.2,30.28,NNE,21,2.0,13.0,65,0.00,,,0.00,WeatherCatV1.13B119,2013-02-22 03:32:00,
2013-02-21 22:37:00,24.1,14.1,30.29,NNW,338,4.0,5.0,65,0.00,,,0.00,WeatherCatV1.13B119,2013-02-22 03:37:00,
2013-02-21 22:42:00,24.0,14.3,30.30,NNW,338,3.0,6.0,66,0.00,,,0.00,WeatherCatV1.13B119,2013-02-22 03:42:00,
2013-02-21 22:47:00,24.0,14.0,30.30,North,352,4.0,4.0,65,0.00,,,0.00,WeatherCatV1.13B119,2013-02-22 03:47:00,
2013-02-21 22:52:00,24.0,14.3,30.30,North,354,2.0,8.0,66,0.00,,,0.00,WeatherCatV1.13B119,2013-02-22 03:52:00,
2013-02-21 22:57:00,24.0,14.3,30.30,NNW,342,2.0,6.0,66,0.00,,,0.00,WeatherCatV1.13B119,2013-02-22 03:57:00,
2013-02-21 23:02:00,23.9,14.2,30.30,NNW,340,2.0,6.0,66,0.00,,,0.00,WeatherCatV1.13B119,2013-02-22 04:02:00,
2013-02-21 23:07:00,23.9,14.2,30.29,North,349,2.0,8.0,66,0.00,,,0.00,WeatherCatV1.13B119,2013-02-22 04:07:00,
2013-02-21 23:12:00,23.9,14.2,30.30,NNW,343,0.0,7.0,66,0.00,,,0.00,WeatherCatV1.13B119,2013-02-22 04:12:00,
2013-02-21 23:17:00,23.9,14.6,30.30,NW,319,1.0,8.0,67,0.00,,,0.00,WeatherCatV1.13B119,2013-02-22 04:17:00,
2013-02-21 23:22:00,23.9,14.6,30.30,NW,321,0.0,2.0,67,0.00,,,0.00,WeatherCatV1.13B119,2013-02-22 04:22:00,
2013-02-21 23:27:00,23.8,14.5,30.30,NW,322,5.0,6.0,67,0.00,,,0.00,WeatherCatV1.13B119,2013-02-22 04:27:00,
2013-02-21 23:32:00,23.8,14.5,30.30,North,349,4.0,4.0,67,0.00,,,0.00,WeatherCatV1.13B119,2013-02-22 04:32:00,
2013-02-21 23:37:00,23.8,14.5,30.30,NNW,331,3.0,5.0,67,0.00,,,0.00,WeatherCatV1.13B119,2013-02-22 04:37:00,
2013-02-21 23:42:00,23.8,14.5,30.30,North,349,0.0,5.0,67,0.00,,,0.00,WeatherCatV1.13B119,2013-02-22 04:42:00,
2013-02-21 23:47:00,23.8,14.8,30.30,NNW,330,3.0,5.0,68,0.00,,,0.00,WeatherCatV1.13B119,2013-02-22 04:47:00,
2013-02-21 23:52:00,23.9,14.9,30.29,NNE,27,5.0,5.0,68,0.00,,,0.00,WeatherCatV1.13B119,2013-02-22 04:52:00,
2013-02-21 23:57:00,23.9,14.9,30.30,North,0,2.0,4.0,68,0.00,,,0.00,WeatherCatV1.13B119,2013-02-22 04:57:00,